Showing default

COSMOS 2295 (GLONASS), 23396

Orbit data source: Space-Track

COSMOS 2295 (GLONASS), 23396 is a payload satellite owned by VKS (CIS) in MEO that was launched on Sun, 20 Nov 1994 UTC via a PROTON-K/DM-2 launch vehicle from the Tyuratam Missile And Space Complex (TTMTR). Payload-class satellites include a variety of spacecraft equipped with specific instruments for various scientific and technological missions. These include communications satellites like Starlink; space stations such as the ISS; scientific satellites like the Hubble; Earth observation satellites from companies like Planet Labs, Umbra, and HawkEye 360; GPS; miniature CubeSats for education and research; and military/defense satellites.

Loading next visibility...
Identifier
23396, 1994-076A
Orbit
MEO
Country
Flag of CISCIS
Related business
Manufacturer
Polyot
Mission
Non-operational Defense Navigation
Bus & Motor
URAGAN, Unknown motor
Mass
1,300 kg wet, ~1,200 kg dry
Launch date (UTC)
1994-11-20 (32 years ago)
Launch vehicle
PROTON-K/DM-2
Launch site
Tyuratam Missile And Space Complex (TTMTR)
Object type
Payload
Rocket body
Debris
Shape & HBR
Cyl + 2 Pan, 4.2 m
Radar Cross Section
14.707 m², Large (>1 m²)

Expand to show TLE details & history
Last TLE update: 4 days ago

TLE from 4 days ago
0 COSMOS 2295 (GLONASS)
1 23396U 94076A   26169.12165061 -.00000028  00000-0  00000-0 0  9996
2 23396  64.8518  69.0914 0036792 203.8856 331.3322  2.13102417245521
Epoch: 2026-06-18T02:55Z
TLE epoch observation values (Epoch: 2026-06-18T02:55:10.612Z)
Latitude
4.50443°
Longitude
-63.17189°
Altitude
19,047.622 km
Speed
3.966 km/s
True Right ascension
16h 27m 58s
True Declination
4° 29' 49"
Sunlit
Object was in daylight at epoch
Visualization orbit readout
Latitude
Unknown
Longitude
Unknown
Altitude
Unknown
Speed
Unknown
Apparent Right ascension
Unknown
Apparent Declination
Unknown
Sunlit
N/A
Visualization observer readout
Local Sidereal Time
23:07:51
Azimuth
Unknown
Elevation
Unknown
Doppler factor
Unknown
Orbital elements
Apogee altitude
19,223.322 km
Perigee altitude
19,035.627 km
Semi-major axis
25,507.611 km
Eccentricity
0.00368
Inclination
64.8518°
RAAN
69.0914°
Arg. of periapsis
203.8856°
True anomaly
331.12912°
Mean anomaly
331.3322°
Eccentric anomaly
331.23074°
Mean motion
0.53277 °/min
Orbital period
675.72 mins
BSTAR
0
Loading maneuver chart data...
Computing Atmospheric mass density...
Loading historical data...
Loading historical data...
Loading historical data...
Loading historical data...
Loading historical data...
Loading historical data...
Loading historical data...

Documentation

Showing up to 5 results
|